Vorticity
nan nan nan nan nan nan nan nan nan nan nan nan nan nan nan nan nan nan nan nan nan nan nan nan nan nan nan nan nan nan nan nan nan nan nan nan nan nan nan nan nan nan nan nan nan nan nan nan nan
nan 7 8 10 9 6 9 7 1 6 12 7 2 6 4 8 7 8 12 17 4 6 5 7 7 6 6 4 4 5 5 5 5 5 5 6 7 7 7 6 5 4 6 5 6 6 5 4 nan
nan 10 7 9 9 3 6 8 8 4 10 8 4 4 9 4 9 10 11 10 5 5 7 7 8 6 5 4 4 5 5 5 5 5 5 6 6 8 7 7 6 4 5 5 6 5 5 4 nan
nan 9 6 10 9 3 1 6 7 4 2 7 6 3 5 5 8 10 11 8 5 4 7 8 7 5 5 5 5 5 5 6 5 5 6 6 7 6 6 6 5 5 5 6 6 5 5 5 nan
nan 7 12 10 8 7 2 2 11 7 4 6 3 5 2 5 7 13 8 6 4 8 7 7 6 5 5 5 5 6 6 5 5 5 6 7 6 6 5 4 5 5 8 9 7 6 6 5 nan
nan 7 13 10 8 8 7 2 8 10 3 5 8 6 5 11 11 8 9 12 8 7 7 6 5 6 6 6 6 6 6 5 5 5 6 6 6 6 4 4 7 5 7 7 6 7 6 5 nan
nan 2 8 14 8 5 7 11 4 0 3 6 8 6 6 7 11 12 10 11 13 5 4 5 5 5 5 5 7 7 6 5 5 7 5 5 6 5 3 4 5 5 6 6 7 6 4 4 nan
nan 9 7 7 8 9 7 5 3 6 8 2 11 18 12 8 4 5 12 8 6 8 5 5 5 5 4 6 7 7 7 7 8 7 4 4 4 4 3 6 5 4 4 5 8 6 4 3 nan
nan 4 10 12 5 7 3 19 4 -1 9 4 10 15 17 9 4 4 5 6 9 8 6 7 6 6 6 6 6 7 7 4 6 5 2 0 2 6 6 6 6 6 5 6 6 5 3 2 nan
nan 6 8 5 8 4 8 14 6 9 3 -1 7 9 9 6 6 5 5 5 7 7 5 7 6 6 6 6 5 4 3 3 3 5 1 3 8 6 5 5 5 3 4 4 4 5 4 -0 nan
nan 4 6 5 4 5 14 3 10 9 1 5 6 6 5 6 4 6 6 5 9 6 7 8 7 6 6 6 5 5 5 7 8 6 3 7 7 7 5 4 4 5 4 3 4 4 4 4 nan
nan 6 11 10 12 4 5 4 11 5 5 11 4 5 5 7 8 7 8 7 6 8 9 7 6 7 6 5 8 7 6 7 9 7 7 7 6 7 6 6 7 6 6 7 5 5 8 9 nan
nan 9 9 6 15 10 4 6 8 3 7 8 11 13 4 6 9 8 10 7 6 8 6 8 7 6 8 6 7 6 6 7 10 8 8 7 7 6 6 7 8 7 8 7 8 8 9 8 nan
nan 13 3 14 7 10 7 8 10 3 12 10 9 3 7 6 7 8 10 8 7 8 6 8 7 6 5 7 7 5 6 8 9 8 10 6 7 8 8 8 8 8 8 8 8 8 8 7 nan
nan 13 13 9 4 14 16 6 2 2 6 10 15 6 5 7 9 8 9 7 5 6 8 9 8 6 5 6 6 8 7 8 8 8 8 6 8 8 8 8 8 7 9 8 8 8 7 7 nan
nan 8 17 14 6 6 12 21 5 6 6 11 9 6 6 10 7 8 8 9 9 9 7 6 9 7 6 6 6 6 9 9 7 8 9 9 7 8 7 7 8 8 7 7 7 7 7 8 nan
nan 6 6 12 13 3 1 11 13 10 1 13 9 6 9 10 5 11 11 10 8 9 9 7 7 8 7 5 7 9 7 6 7 8 9 9 7 7 6 7 8 9 7 8 7 8 8 8 nan
nan 7 8 12 12 7 0 -3 17 21 9 5 4 11 7 7 7 9 8 10 9 6 8 9 9 8 5 7 7 7 7 8 7 8 11 8 8 8 6 8 8 8 7 6 7 8 7 9 nan
nan 10 13 7 15 8 3 4 13 4 9 13 10 6 8 9 6 6 6 8 8 9 9 9 7 7 5 7 8 9 7 6 8 6 9 12 10 9 6 7 8 8 8 8 7 8 8 6 nan
nan 3 10 4 16 15 11 5 1 5 9 8 9 8 10 9 10 8 4 7 11 10 9 10 8 7 7 8 9 9 10 8 9 6 5 8 11 8 7 7 8 7 8 9 7 7 8 10 nan
nan 8 8 9 8 11 18 13 6 11 3 7 6 11 14 10 10 7 5 6 8 11 11 10 10 7 8 9 7 7 6 9 10 9 7 7 7 9 8 7 8 8 7 8 9 9 8 7 nan
nan 15 5 11 10 11 12 14 13 10 6 6 6 8 11 10 11 8 8 6 6 7 12 13 11 10 10 10 9 8 4 7 8 9 10 12 8 9 9 11 9 7 8 8 8 7 8 8 nan
nan 14 5 21 10 6 9 9 15 6 6 7 7 6 7 10 10 8 11 10 7 7 8 9 10 10 10 8 8 8 8 8 10 8 10 8 9 12 14 12 8 7 8 9 9 8 7 7 nan
nan 9 6 10 11 13 13 7 11 15 11 3 5 6 7 7 8 10 9 9 7 8 8 9 9 8 10 8 7 8 6 4 7 8 10 7 8 8 10 10 11 10 8 8 8 10 8 7 nan
nan 8 10 9 11 17 16 4 14 11 8 8 8 8 6 8 9 8 7 6 7 7 7 9 8 8 8 8 7 7 7 10 8 5 7 7 7 6 9 9 7 9 9 10 9 9 9 9 nan
nan 8 11 12 7 13 9 5 11 14 24 20 6 9 10 6 10 9 7 7 8 8 6 6 7 9 8 8 8 9 7 6 7 7 5 9 11 9 6 8 8 6 6 7 8 9 11 9 nan
nan 7 10 11 8 10 8 8 13 16 12 17 14 14 14 9 8 9 8 9 8 8 8 7 9 8 10 12 7 9 12 13 11 10 9 12 11 11 13 10 7 9 11 11 9 8 9 10 nan
nan 9 10 10 10 11 13 8 11 12 7 7 9 11 12 13 10 8 8 9 10 11 11 11 10 9 10 11 12 11 11 12 13 12 13 10 9 12 13 11 11 12 11 12 13 11 11 10 nan
nan 10 8 6 12 12 10 6 6 13 16 10 9 11 10 11 16 14 10 10 8 11 13 10 8 10 12 11 12 10 8 8 9 9 9 8 10 9 10 10 11 11 11 12 12 9 11 10 nan
nan nan nan nan nan nan nan nan nan nan nan nan nan nan nan nan nan nan nan nan nan nan nan nan nan nan nan nan nan nan nan nan nan nan nan nan nan nan nan nan nan nan nan nan nan nan nan nan nan
CAPE
2 451 650 490 95 17 0 0 0 0 0 0 0 0 0 506 569 495 494 956 1726 1477 1742 2237 2464 2504 2332 2014 1803 1426 1096 437 18 16 9 10 21 52 88 106 130 38 11 7 9 8 21 25 12
0 287 733 242 54 0 0 0 0 0 0 0 0 0 0 493 570 797 605 1527 1387 1474 1514 1876 2269 2279 2259 1984 1656 1207 986 638 45 19 9 12 19 26 16 18 24 11 2 5 9 19 21 18 0
27 320 465 206 22 3 0 0 0 0 0 0 0 0 0 408 871 814 922 1552 1221 1361 1286 1765 2057 2222 2208 1938 1646 1399 1112 903 632 289 117 11 18 17 15 53 24 27 13 10 0 1 1 0 0
171 351 235 147 4 0 0 0 0 0 0 0 0 0 1249 1064 1002 1232 1052 1396 1093 1060 1352 1730 2092 2205 2077 1879 1582 1426 1273 1181 921 537 170 32 12 18 26 35 42 53 26 14 8 3 0 0 0
410 239 157 87 10 0 0 0 0 0 0 0 0 0 1254 1168 1378 1280 987 1432 995 1106 1425 1696 2098 2172 2046 1831 1617 1478 1308 1236 1089 735 116 3 9 13 16 21 32 65 30 196 52 66 64 71 66
203 146 88 36 1 0 0 0 4 0 0 0 0 59 1190 1353 1509 1327 1066 1366 971 1400 1323 1404 1659 1720 1751 1682 1432 1413 1335 1227 1192 886 191 0 2 7 12 28 17 21 115 69 69 114 85 80 40
87 139 47 4 5 5 0 56 0 0 0 0 0 14 1294 1403 1465 1329 1120 1576 1509 1243 1250 1313 1427 1438 1383 1395 1341 1253 1237 1246 1294 875 450 56 2 16 15 72 22 108 50 55 258 150 74 52 0
98 117 19 9 0 31 6 35 17 0 0 0 0 511 1397 1624 1535 1507 1562 2073 1700 1262 1173 1321 1360 1240 1227 1179 1036 1001 1005 1098 960 685 89 5 0 5 73 40 15 110 61 64 121 172 83 23 0
112 82 15 15 13 42 31 55 7 0 2 0 316 579 1487 1850 1548 1624 1529 1757 1959 1386 1110 1188 1320 1215 1108 1103 964 999 648 272 247 71 0 0 0 0 0 2 21 64 70 59 0 61 102 28 0
126 11 0 0 0 3 5 15 18 5 8 41 460 394 1558 1818 1661 1583 1368 1584 1890 1645 1308 1216 1207 1180 1182 1191 766 580 122 1 8 57 0 11 0 0 0 0 9 33 23 42 0 0 72 0 0
68 0 0 0 9 1 53 4 9 39 53 8 389 400 1039 1703 1644 1709 1261 1185 1845 1930 1484 1335 1093 1144 1149 1023 724 493 103 32 1 0 3 17 0 0 0 0 0 0 0 0 0 0 0 0 0
36 3 4 0 0 0 0 11 0 1 20 21 262 657 716 1200 1387 1336 1377 1174 1500 1693 1503 1294 1371 1381 1206 891 858 661 326 170 18 0 0 49 2 5 5 0 0 0 0 0 0 0 0 0 0
22 16 8 7 76 0 0 1 0 0 6 65 0 713 638 700 1211 1443 1304 1322 1256 1258 1204 1397 1189 1377 1049 810 894 795 503 110 27 1 0 42 55 24 14 0 0 0 0 0 0 0 0 0 0
49 48 15 34 82 3 0 0 10 0 0 11 12 182 488 614 1230 1522 1402 1044 1054 1209 1330 1144 1154 1107 1142 827 989 616 426 186 65 54 26 6 3 33 23 16 0 0 0 0 0 0 0 0 0
43 19 23 33 0 38 37 12 35 0 3 2 11 1 14 20 921 1425 1429 1268 948 983 1354 1217 1152 1272 1080 979 580 571 378 224 121 70 37 7 40 13 16 36 25 34 15 16 13 6 0 0 0
39 0 13 0 0 43 60 0 9 2 0 3 60 8 0 2 531 857 1211 1251 1221 1096 830 1107 1572 1317 1163 966 563 738 563 373 199 113 56 25 50 39 18 7 36 33 31 20 18 8 5 0 0
43 3 5 0 3 46 0 0 0 16 0 0 8 8 5 0 9 320 606 667 928 1132 1029 837 915 1242 1158 1061 934 851 667 396 412 202 95 69 21 14 18 4 7 13 13 13 12 6 0 0 0
1 34 0 0 0 24 16 0 2 1 4 9 0 2 19 4 19 8 47 148 583 832 865 878 1063 1012 1211 1040 1003 938 712 537 469 453 171 72 16 3 12 6 2 0 2 0 3 0 0 0 0
6 21 0 0 0 5 4 2 25 12 0 4 0 0 0 9 10 2 0 6 41 326 732 763 1225 1117 984 935 787 646 692 633 497 503 534 95 35 14 13 32 0 0 4 16 9 0 0 0 0
5 13 0 0 0 13 0 42 45 27 2 12 5 0 0 0 0 23 0 10 262 635 580 903 1208 1130 932 636 737 728 634 551 396 341 336 342 182 76 70 95 64 1 5 9 19 10 0 0 0
24 4 0 0 0 6 0 0 5 7 10 19 7 0 0 0 0 33 0 0 0 327 823 706 1001 924 927 779 450 338 132 202 227 284 255 214 272 235 85 92 150 59 14 20 32 14 8 0 0
7 0 0 10 1 8 0 4 0 4 4 1 0 0 2 14 4 0 0 0 0 18 711 657 732 796 728 478 434 272 210 179 149 157 129 157 226 221 231 170 179 180 122 73 76 73 19 11 18
6 5 2 12 3 2 0 0 0 1 0 2 0 0 0 0 12 2 7 0 0 0 222 456 691 548 413 320 265 173 88 57 49 50 92 108 79 61 92 163 161 141 148 107 89 90 92 40 48
3 22 15 8 4 20 0 0 0 0 0 0 0 0 0 0 0 2 4 0 0 0 0 248 410 327 219 21 18 4 3 0 0 0 2 8 9 0 0 55 74 99 148 144 143 51 68 70 74
27 0 3 3 4 13 0 5 0 0 0 0 0 0 0 0 0 0 0 0 0 0 0 0 257 207 35 1 0 0 0 0 0 0 0 0 3 2 8 1 12 16 53 98 64 24 60 73 62
2 0 7 8 0 0 0 0 0 0 0 0 0 0 0 0 0 0 0 0 0 0 0 0 0 7 105 0 0 0 0 0 0 0 8 1 0 1 12 18 31 28 14 31 60 69 52 108 103
2 1 0 0 3 22 0 0 0 0 0 0 0 0 0 0 0 0 0 0 0 0 0 0 0 0 0 73 10 16 2 0 2 31 15 27 7 9 62 22 66 65 94 99 87 75 78 74 76
0 2 0 1 0 33 0 0 0 0 0 0 0 0 0 0 0 0 0 0 0 0 0 0 0 0 0 69 9 4 1 4 0 0 0 0 0 0 20 24 19 26 17 21 35 52 42 45 22
0 3 0 1 2 14 0 0 0 0 0 0 0 0 0 0 0 0 0 0 0 0 0 0 0 0 0 0 0 0 0 0 0 0 0 0 0 0 0 0 0 0 0 0 0 0 0 0 0
1 0 2 43 0 0 0 0 0 0 0 0 0 0 0 0 0 0 0 0 0 0 0 0 0 0 0 0 0 0 0 0 0 0 0 0 0 0 0 0 0 0 0 0 0 0 0 0 0